Tracking 21045 objects as of 3-Aug-2020
HD Live streaming from Space Station
objects crossing your sky now

STELLA

Track STELLA now!
10-day predictions
STELLA is classified as:


NORAD ID: 22824
Int'l Code: 1993-061B
Perigee: 803.3 km
Apogee: 812.0 km
Inclination: 99.0 °
Period: 100.9 minutes
Semi major axis: 7178 km
RCS: 0.167 m2 (medium)
Launch date: September 26, 1993
Source: France (FR)
Launch site: FRENCH GUIANA (FRGUI)
aabbcc
Your satellite tracking list
Your tracking list is empty




NASA's NSSDC Master Catalog

Two Line Element Set (TLE):
1 22824U 93061B   20215.80904292 -.00000041 +00000-0 +22594-5 0  9994
2 22824 098.9631 207.7995 0006015 342.8917 082.9749 14.27381109399018
Source of the keplerian elements: AFSPC